Regional Weather Roundup
Issued by NWS

Home | Current Version | Previous Version | Graphics & Text | Print | Product List | Glossary On
Versions: 1 2 3 4 5 6 7 8 9 10 11 12 13 14 15 16 17 18 19 20 21 22 23 24 25 26 27 28 29 30 31 32 33 34 35 36 37 38 39 40 41 42 43 44 45 46 47 48 49 50
413
ASUS45 KABQ 231410
RWRNM
NEW MEXICO REGIONAL WEATHER ROUNDUP
NATIONAL WEATHER SERVICE ALBUQUERQUE NM
700 AM MST FRI FEB 23 2018

NOTE: "FAIR" MEANS FEW OR NO CLOUDS BELOW 12,000 FEET AGL WITH NO
       SIGNIFICANT WEATHER OR OBSTRUCTIONS TO VISION.

      THIS PRODUCT IS RELEASED AS TWO VERSIONS.  ONE VERSION NEAR
      THE TOP OF THE HOUR CONTAINING PRELIMINARY DATA FROM ALBUQUERQUE
      AND OTHER STATIONS.  A FINAL VERSION WITH ADDITIONAL DATA IS
      ISSUED ABOUT 10 MINUTES AFTER THE HOUR.

NMZ501-503-504-510>518-231500-
NORTHWEST PLATEAU/NORTHCENTRAL MOUNTAINS

CITY           SKY/WX    TMP DP  RH WIND       PRES   REMARKS
FARMINGTON     FAIR      19  11  70 E10       30.03S WCI   7
LOS ALAMOS     FAIR      21  11  65 NW3       30.05S
SANTA FE       FAIR      17  14  88 N14       30.05S WCI   3
TAOS           FAIR       8   3  80 CALM      30.08
ANGEL FIRE     FAIR      -1  -4  86 CALM      30.03R

$$
NMZ402-403-502-505>509-231500-
WESTCENTRAL MOUNTAINS/SOUTHWEST MOUNTAINS

CITY           SKY/WX    TMP DP  RH WIND       PRES   REMARKS
GALLUP         FAIR      19  11  70 S8        30.03S WCI   9
GRANTS         FAIR      11   6  80 NW5       30.07R WCI   3
SILVER CITY    FAIR      23  19  83 N8        30.10R WCI  14

$$
NMZ407-409-411-412-231500-
SOUTHERN DESERTS

CITY           SKY/WX    TMP DP  RH WIND       PRES   REMARKS
DEMING         FAIR      25  20  81 CALM      30.11R
LAS CRUCES     FAIR      30  21  69 W5        30.11R WCI  25
HOLLOMAN AFB   FAIR      32  20  62 CALM      30.11R
ALAMOGORDO     FAIR      34  19  55 SE7       30.09R WCI  28
T OR C         FAIR      31  18  58 NW7       30.06R WCI  24

$$
NMZ519>523-231500-
CENTRAL VALLEYS/CENTRAL HIGHLANDS

CITY           SKY/WX    TMP DP  RH WIND       PRES   REMARKS
ALBUQUERQUE    FAIR      25  17  72 N10       30.07R WCI  15
DOUBLE EAGLE   PTCLDY    18   9  68 N3        30.06S
MORIARTY ARPT  FAIR      11   7  85 CALM      30.07R
CLINES CORNERS FAIR      25   8  48 W14       30.05R WCI  13
BELEN          FAIR      20   8  59 CALM      30.06S
SOCORRO        FAIR      30  16  56 S8        30.07R WCI  22

$$
NMZ524>526-539-540-231500-
SOUTHCENTRAL MOUNTAINS

CITY           SKY/WX    TMP DP  RH WIND       PRES   REMARKS
RUIDOSO        NOT AVBL

$$
NMZ527>531-231500-
NORTHEAST HIGHLANDS/NORTHEAST PLAINS

CITY           SKY/WX    TMP DP  RH WIND       PRES   REMARKS
LAS VEGAS      FAIR      21   7  54 S14       30.03R WCI   8
RATON          FAIR       9   2  73 N8        30.01R WCI  -3
CLAYTON        FAIR      19  11  70 NE3       30.05R

$$
NMZ532>537-231500-
EASTCENTRAL PLAINS

CITY           SKY/WX    TMP DP  RH WIND       PRES   REMARKS
SANTA ROSA     FAIR      24  13  63 CALM      30.07S
TUCUMCARI      FAIR      29  20  69 W10       30.06R WCI  20
CANNON AFB     FAIR      29  29  99 CALM      30.10S
CLOVIS AIRPORT NOT AVBL

$$
NMZ028-029-538-231500-
SOUTHEAST PLAINS

CITY           SKY/WX    TMP DP  RH WIND       PRES   REMARKS
ROSWELL        FAIR      28  25  88 E3        30.08R
ARTESIA        FAIR      32  32 100 CALM      30.09S
CARLSBAD       FAIR      28  26  92 SW3       30.08S
HOBBS          CLEAR     30  25  80 NW6       30.09R WCI  24


$$




USA.gov is the U.S. government's official web portal to all federal, state and local government web resources and services.